When you browse on this site, cookies collect data to enhance your experience and personalize the content and advertising you see.
Visit our Privacy Policy to learn more. By continuing to use the site, you agree to this use of cookies and data.
  • In Hungary
  • List of Countries
  • For 7 days
  • Water Temperature
  • Weather Map
  • News
  • Weather Widgets
  • user-avatar
    Login

    Hourly Weather Montaytas

    Today, 8 April, Wednesday

    Time Temperature Precipitation Wind Pressure Humidity
    00:00 +6°C° 0.5 mm 4 mps 735 mmHg 58%
    01:00 +5°C° 0.5 mm 3 mps 735 mmHg 72%
    02:00 +4°C° 0.5 mm 3 mps 735 mmHg 86%
    03:00 +3°C° 1.1 mm 3 mps 735 mmHg 89%
    04:00 +3°C° 1.1 mm 3 mps 735 mmHg 92%
    05:00 +3°C° 0 mm 3 mps 735 mmHg 96%
    06:00 +3°C° 1.1 mm 3 mps 735 mmHg 96%
    07:00 +3°C° 1.1 mm 3 mps 735 mmHg 96%
    08:00 +3°C° 1.1 mm 3 mps 736 mmHg 96%
    09:00 +3°C° 0.9 mm 2 mps 735 mmHg 95%
    10:00 +3°C° 0.9 mm 2 mps 735 mmHg 95%
    11:00 +3°C° 0.9 mm 2 mps 735 mmHg 95%
    12:00 +3°C° 0.7 mm 2 mps 735 mmHg 95%
    13:00 +3°C° 0.7 mm 2 mps 735 mmHg 95%
    14:00 +3°C° 0.7 mm 2 mps 735 mmHg 95%
    15:00 +3°C° 0.9 mm 2 mps 735 mmHg 95%
    16:00 +4°C° 0.9 mm 1 mps 735 mmHg 95%
    17:00 +4°C° 0.9 mm 1 mps 735 mmHg 95%
    18:00 +4°C° 1.6 mm 1 mps 735 mmHg 95%
    19:00 +4°C° 1.6 mm 1 mps 735 mmHg 96%
    20:00 +3°C° 1.6 mm 1 mps 736 mmHg 97%
    21:00 +3°C° 1.7 mm 1 mps 736 mmHg 97%
    22:00 +3°C° 1.7 mm 1 mps 737 mmHg 97%
    23:00 +2°C° 1.7 mm 2 mps 737 mmHg 98%

    Tomorrow, 9 April, Thursday

    Time Temperature Precipitation Wind Pressure Humidity
    00:00 +2°C° 1.4 mm 2 mps 737 mmHg 98%
    01:00 +1°C° 1.4 mm 3 mps 738 mmHg 98%
    02:00 -1°C° 1.4 mm 4 mps 738 mmHg 98%
    03:00 -1°C° 0.7 mm 4 mps 739 mmHg 97%
    04:00 0°C° 0.7 mm 3 mps 740 mmHg 96%
    05:00 +1°C° 0.7 mm 2 mps 741 mmHg 96%
    06:00 0°C° 0 mm 3 mps 741 mmHg 93%
    07:00 +1°C° 0 mm 3 mps 742 mmHg 91%
    08:00 0°C° 0 mm 4 mps 742 mmHg 89%
    09:00 +1°C° 0 mm 4 mps 743 mmHg 85%
    10:00 +3°C° 0 mm 4 mps 743 mmHg 81%
    11:00 +4°C° 0 mm 4 mps 743 mmHg 77%
    12:00 +5°C° 0 mm 4 mps 743 mmHg 72%
    13:00 +5°C° 0 mm 3 mps 743 mmHg 68%
    14:00 +7°C° 0 mm 3 mps 743 mmHg 64%
    15:00 +7°C° 0 mm 3 mps 743 mmHg 64%
    16:00 +7°C° 0 mm 2 mps 743 mmHg 64%
    17:00 +7°C° 0 mm 2 mps 742 mmHg 64%
    18:00 +4°C° 0 mm 3 mps 742 mmHg 66%
    19:00 +2°C° 0 mm 3 mps 742 mmHg 69%
    20:00 +1°C° 0 mm 3 mps 742 mmHg 71%
    21:00 0°C° 0 mm 3 mps 741 mmHg 69%
    22:00 0°C° 0 mm 3 mps 741 mmHg 67%
    23:00 -1°C° 0 mm 3 mps 741 mmHg 65%

    Day after tomorrow, 10 April, Friday

    Time Temperature Precipitation Wind Pressure Humidity
    00:00 -1°C° 0 mm 3 mps 740 mmHg 66%
    01:00 -1°C° 0 mm 3 mps 739 mmHg 68%
    02:00 -2°C° 0 mm 3 mps 738 mmHg 70%
    03:00 -1°C° 0 mm 3 mps 738 mmHg 70%
    04:00 -1°C° 0 mm 3 mps 738 mmHg 69%
    05:00 -1°C° 0 mm 3 mps 737 mmHg 69%
    06:00 0°C° 0 mm 3 mps 737 mmHg 67%
    07:00 +2°C° 0 mm 3 mps 737 mmHg 64%
    08:00 +3°C° 0 mm 3 mps 736 mmHg 61%
    09:00 +5°C° 0 mm 3 mps 736 mmHg 59%
    10:00 +7°C° 0 mm 3 mps 735 mmHg 56%
    11:00 +8°C° 0 mm 4 mps 735 mmHg 53%
    12:00 +10°C° 0 mm 4 mps 735 mmHg 52%
    13:00 +11°C° 0 mm 4 mps 734 mmHg 51%
    14:00 +12°C° 0 mm 4 mps 733 mmHg 50%
    15:00 +12°C° 0 mm 4 mps 733 mmHg 54%
    16:00 +12°C° 0 mm 4 mps 732 mmHg 59%
    17:00 +12°C° 0 mm 4 mps 732 mmHg 63%
    18:00 +10°C° 0 mm 3 mps 731 mmHg 68%
    19:00 +8°C° 0 mm 3 mps 731 mmHg 72%
    20:00 +6°C° 0 mm 2 mps 731 mmHg 77%
    21:00 +7°C° 0 mm 2 mps 731 mmHg 75%
    22:00 +7°C° 0 mm 2 mps 731 mmHg 72%
    23:00 +9°C° 0 mm 1 mps 731 mmHg 70%

    11 April, Saturday

    Time Temperature Precipitation Wind Pressure Humidity
    00:00 +8°C° 0 mm 2 mps 731 mmHg 63%
    01:00 +9°C° 0 mm 2 mps 731 mmHg 56%
    02:00 +9°C° 0 mm 2 mps 731 mmHg 50%
    03:00 +10°C° 0 mm 2 mps 731 mmHg 50%
    04:00 +10°C° 0 mm 2 mps 731 mmHg 50%
    05:00 +10°C° 0 mm 2 mps 732 mmHg 50%
    06:00 +11°C° 0 mm 3 mps 732 mmHg 54%
    07:00 +12°C° 0 mm 3 mps 732 mmHg 58%
    08:00 +13°C° 0 mm 4 mps 732 mmHg 62%
    09:00 +15°C° 0 mm 5 mps 733 mmHg 59%
    10:00 +17°C° 0 mm 5 mps 733 mmHg 56%
    11:00 +21°C° 0 mm 6 mps 733 mmHg 54%
    12:00 +21°C° 0 mm 6 mps 732 mmHg 52%
    13:00 +22°C° 0 mm 6 mps 732 mmHg 51%
    14:00 +23°C° 0 mm 5 mps 732 mmHg 49%
    15:00 +22°C° 0 mm 4 mps 732 mmHg 52%
    16:00 +22°C° 0 mm 3 mps 731 mmHg 56%
    17:00 +23°C° 0 mm 2 mps 731 mmHg 59%
    18:00 +20°C° 0 mm 2 mps 731 mmHg 62%
    19:00 +18°C° 0 mm 2 mps 730 mmHg 65%
    20:00 +16°C° 0 mm 2 mps 730 mmHg 68%
    21:00 +16°C° 0 mm 2 mps 730 mmHg 67%
    22:00 +16°C° 0 mm 2 mps 730 mmHg 66%
    23:00 +16°C° 0 mm 2 mps 730 mmHg 64%

    12 April, Sunday

    Time Temperature Precipitation Wind Pressure Humidity
    00:00 +15°C° 0.2 mm 2 mps 729 mmHg 69%
    01:00 +15°C° 0.2 mm 2 mps 729 mmHg 73%
    02:00 +15°C° 0.2 mm 2 mps 728 mmHg 77%
    03:00 +15°C° 0 mm 2 mps 728 mmHg 76%
    04:00 +15°C° 0 mm 2 mps 728 mmHg 75%
    05:00 +15°C° 0 mm 2 mps 728 mmHg 74%
    06:00 +15°C° 0 mm 2 mps 728 mmHg 73%
    07:00 +16°C° 0 mm 3 mps 728 mmHg 71%
    08:00 +15°C° 0 mm 4 mps 728 mmHg 70%
    09:00 +17°C° 0.1 mm 6 mps 728 mmHg 67%
    10:00 +18°C° 0.1 mm 8 mps 728 mmHg 63%
    11:00 +19°C° 0.1 mm 10 mps 727 mmHg 60%
    12:00 +21°C° 0 mm 9 mps 727 mmHg 59%
    13:00 +22°C° 0 mm 8 mps 726 mmHg 58%
    14:00 +23°C° 0 mm 7 mps 726 mmHg 57%
    15:00 +23°C° 0 mm 6 mps 725 mmHg 59%
    16:00 +23°C° 0 mm 5 mps 725 mmHg 61%
    17:00 +23°C° 0 mm 4 mps 724 mmHg 63%
    18:00 +21°C° 3.7 mm 4 mps 725 mmHg 73%
    19:00 +19°C° 3.7 mm 5 mps 726 mmHg 84%
    20:00 +17°C° 3.7 mm 5 mps 727 mmHg 95%
    21:00 +16°C° 2.2 mm 5 mps 727 mmHg 94%
    22:00 +15°C° 2.2 mm 5 mps 728 mmHg 93%
    23:00 +15°C° 2.2 mm 6 mps 729 mmHg 92%

    13 April, Monday

    Time Temperature Precipitation Wind Pressure Humidity
    00:00 +14°C° 0.1 mm 4 mps 729 mmHg 91%
    01:00 +13°C° 0.1 mm 3 mps 729 mmHg 90%
    02:00 +13°C° 0.1 mm 1 mps 729 mmHg 90%
    03:00 +13°C° 0 mm 1 mps 730 mmHg 89%
    04:00 +12°C° 0 mm 1 mps 730 mmHg 88%
    05:00 +11°C° 0 mm 0 mps 731 mmHg 87%
    06:00 +12°C° 0 mm 1 mps 731 mmHg 86%
    07:00 +12°C° 0 mm 1 mps 732 mmHg 85%
    08:00 +13°C° 0 mm 2 mps 733 mmHg 84%
    09:00 +13°C° 0 mm 2 mps 733 mmHg 80%
    10:00 +13°C° 0 mm 3 mps 734 mmHg 76%
    11:00 +13°C° 0 mm 3 mps 735 mmHg 73%
    12:00 +14°C° 0 mm 3 mps 735 mmHg 70%
    13:00 +16°C° 0 mm 3 mps 735 mmHg 67%
    14:00 +17°C° 0 mm 3 mps 735 mmHg 63%
    15:00 +17°C° 0.1 mm 3 mps 735 mmHg 62%
    16:00 +17°C° 0.1 mm 2 mps 735 mmHg 60%
    17:00 +17°C° 0.1 mm 2 mps 735 mmHg 59%
    18:00 +16°C° 0 mm 2 mps 735 mmHg 65%
    19:00 +14°C° 0 mm 2 mps 735 mmHg 71%
    20:00 +12°C° 0 mm 2 mps 736 mmHg 78%
    21:00 +12°C° 0 mm 2 mps 736 mmHg 77%
    22:00 +10°C° 0 mm 2 mps 736 mmHg 76%
    23:00 +10°C° 0 mm 2 mps 737 mmHg 76%
    Show more